Past Weather in Frankfurt, Hesse, Germany — Yesterday or Further Back
Flag for Germany

Past Weather in Frankfurt, Hesse, Germany — Yesterday and Last 2 Weeks

Now
70 °F

Passing clouds.


Feels Like: 70 °F
Forecast: 84 / 60 °F
Wind: 5 mph from Northeast

Location: Frankfurt-M-Flughafen Airport
Current Time: Sep 15, 2020 at 12:04:01 am
Latest Report: Sep 14, 2020 at 11:20 pm
Visibility: N/A
Pressure30.18 "Hg
Humidity: 60%
Dew Point: 55 °F
Location of FrankfurtLocation

Past Weather in Frankfurt — Graph

°F

Frankfurt Temperature Yesterday

Maximum temperature yesterday: 90 °F (at 5:20 pm)
Minimum temperature yesterday: 61 °F (at 4:20 am)
Average temperature yesterday: 73 °F

High & Low Weather Summary for the Past Weeks

 TemperatureHumidityPressure
High90 °F (Sep 14, 5:20 pm)100% (Aug 31, 8:20 am)30.36 "Hg (Aug 31, 8:20 am)
Low43 °F (Sep 8, 6:20 am)24% (Sep 8, 5:50 pm)29.92 "Hg (Aug 30, 10:20 pm)
Average64 °F63%30.14 "Hg
* Reported Aug 30 10:20 pm — Sep 14 10:50 pm, Frankfurt. Weather by CustomWeather, © 2020

Note: Actual official high and low records may vary slightly from our data, if they occured in-between our weather recording intervals... More about our weather records

Frankfurt Weather History for the Previous 24 Hours

Scroll right to see more
 ConditionsComfort  
Time TempWeatherWind HumidityBarometerVisibility
10:50 pm
Mon, Sep 14
72 °FPassing clouds.3 mph57%30.18 "HgN/A
10:20 pm70 °FClear.6 mph60%30.18 "Hg10 mi
9:50 pm72 °FClear.7 mph57%30.18 "Hg10 mi
9:20 pm72 °FClear.6 mph57%30.18 "Hg10 mi
8:50 pm75 °FClear.8 mph50%30.18 "Hg10 mi
8:20 pm79 °FClear.7 mph45%30.18 "Hg10 mi
7:50 pm79 °FClear.7 mph42%30.18 "Hg10 mi
7:20 pm84 °FSunny.7 mph33%30.18 "Hg10 mi
6:50 pm86 °FSunny.9 mph31%30.18 "Hg10 mi
6:20 pm88 °FSunny.9 mph29%30.18 "Hg10 mi
5:50 pm88 °FSunny.10 mph29%30.18 "Hg10 mi
5:20 pm90 °FPassing clouds.9 mph27%30.18 "HgN/A
4:50 pm88 °FPassing clouds.6 mph29%30.21 "HgN/A
4:20 pm88 °FPassing clouds.8 mph29%30.21 "HgN/A
3:50 pm86 °FPassing clouds.7 mph31%30.21 "HgN/A
3:20 pm88 °FPassing clouds.8 mph29%30.24 "HgN/A
2:50 pm88 °FSunny.5 mph29%30.24 "Hg10 mi
2:20 pm88 °FPassing clouds.9 mph29%30.24 "HgN/A
1:50 pm86 °FPassing clouds.10 mph33%30.27 "HgN/A
1:20 pm84 °FPassing clouds.12 mph37%30.27 "HgN/A
12:50 pm82 °FPassing clouds.12 mph42%30.27 "HgN/A
12:20 pm81 °FPassing clouds.10 mph45%30.27 "HgN/A
11:50 am81 °FSunny.9 mph45%30.30 "Hg10 mi
11:20 am79 °FPassing clouds.9 mph48%30.30 "HgN/A
10:50 am75 °FSunny.9 mph54%30.30 "Hg10 mi
10:20 am73 °FSunny.9 mph53%30.30 "Hg10 mi
9:50 am70 °FPassing clouds.8 mph57%30.30 "HgN/A
9:20 am68 °FSunny.9 mph60%30.30 "Hg10 mi
8:50 am63 °FSunny.7 mph68%30.30 "Hg10 mi
8:20 am61 °FSunny.6 mph72%30.30 "Hg10 mi
7:50 am61 °FPassing clouds.6 mph72%30.30 "HgN/A
7:20 am61 °FSunny.7 mph72%30.30 "Hg10 mi
6:50 am61 °FClear.7 mph72%30.27 "Hg10 mi
6:20 am61 °FClear.7 mph68%30.30 "Hg10 mi
5:50 am61 °FClear.7 mph68%30.30 "Hg10 mi
5:20 am61 °FClear.7 mph68%30.30 "Hg10 mi
4:50 am61 °FClear.7 mph68%30.30 "Hg10 mi
4:20 am61 °FClear.6 mph68%30.30 "Hg10 mi
3:50 am63 °FClear.5 mph64%30.30 "Hg10 mi
3:20 am63 °FClear.5 mph68%30.30 "Hg10 mi
2:50 am64 °FPassing clouds.5 mph64%30.30 "HgN/A
2:20 am63 °FClear.7 mph68%30.30 "Hg10 mi
1:50 am63 °FClear.7 mph68%30.30 "Hg10 mi
1:20 am63 °FClear.6 mph64%30.30 "Hg10 mi
12:50 am64 °FPassing clouds.3 mph60%30.30 "HgN/A
12:20 am66 °FClear.5 mph56%30.30 "Hg10 mi
Weather by CustomWeather, © 2020

See weather overview